Погода в Верхнем Турунъю

Россия / Республика Коми     60°23′53″N   52°01′00″E
темп.,
°C
ветер,
м/с
пор.,
м/с
влажн.,
%
обл.,
%
осадки,
мм/ч
давл.,
гПа
погр.,
м
28 сентября, вт
вт2800:00−1в2589100 0.0 1032107
03:00−1всв22919 0.0 103341
06:00−1всв2290100 0.0 103335
09:00+5всв126388 0.0 1032380
12:00+8ссз125099 0.0 1031916
15:00+7ссз2350100 0.0 1030983
18:00+3с227284 0.0 103122
21:00+2с228281 0.0 103131
29 сентября, ср
ср2900:00+4ссз2379100 0.0 103174
03:00+4ссз2486100 0.0 1031135
06:00+4ссз1491100 0.1 1031180
09:00+6с2487100 0.1 1030402
12:00+8ссв2373100 0.2 1030918
15:00+8ссв2474100 0.3 1030741
18:00+5с2591100 0.1 1030169
21:00+4ссз129382 0.1 102924
30 сентября, чт
чт3000:00+3зсз2294100 0.0 102926
03:00+4з2492100 0.3 1028145
06:00+5зюз3893100 0.1 1027312
09:00+7зсз378997 0.1 1025438
12:00+9ссз4678100 0.0 1025744
15:00+10с4671100 0.0 1025961
18:00+9с2781100 0.0 1026352
21:00+7с2589100 0.0 1026190
1 октября, пт
пт100:00+7ссз2593100 0.0 1026194
03:00+6с2494100 0.0 1027192
06:00+6с1495100 0.0 1027183
09:00+7ссв238280 0.0 1028506
12:00+9ссз2369100 0.0 1028895
15:00+9сз3468100 0.0 1028922
18:00+8сз257688 0.0 1029200
21:00+6сз1389100 0.0 1029120
2 октября, сб
сб200:00+6зсз1389100 0.0 1029134
03:00+6з259482 0.0 1029179
06:00+4зсз249815 0.0 102987
09:00+8зсз248145 0.0 1029428
12:00+10зсз3468100 0.0 10291000
15:00+9зсз3568100 0.0 1029431
18:00+6сз11825 0.0 103010
21:00+4з21925 0.0 103112